Regional Weather Roundup
Issued by NWS

Home | Current Version | Previous Version | Text Only | Print | Product List | Glossary On
Versions: 1 2 3 4 5 6 7 8 9 10 11 12 13 14 15 16 17 18 19 20 21 22 23 24 25 26 27 28 29 30 31 32 33 34 35 36 37 38 39 40 41 42 43 44 45 46 47 48 49 50
000
ASUS43 KTOP 301808
RWRKS

WEATHER ROUNDUP FOR KANSAS
NATIONAL WEATHER SERVICE GOODLAND KS
100 PM CDT SAT APR 30 2016

NOTE:  "FAIR" INDICATES FEW OR NO CLOUDS BELOW 12,000 FEET WITH NO
SIGNIFICANT WEATHER AND/OR OBSTRUCTIONS TO VISIBILITY.

KSZ001>006-013>018-027>032-041>047-301900-
NORTHWEST KANSAS

CITY           SKY/WX    TMP DP  RH WIND       PRES   REMARKS
GOODLAND       CLOUDY    38  34  85 NW18      29.83S WCI  28
6HR MIN TEMP:  32; 6HR MAX TEMP:  38;

HAYS           CLOUDY    50  37  62 NW13G23   29.79R
HILL CITY      CLOUDY    46  39  76 NW12      29.79S
6HR MIN TEMP:  41; 6HR MAX TEMP:  46; 6HR PCP:  0.01;

RUSSELL        CLOUDY    50  43  77 W16       29.77R
6HR MIN TEMP:  45; 6HR MAX TEMP:  52; 6HR PCP:  0.03;

$$

KSZ061>065-074>080-084>089-301900-
SOUTHWEST KANSAS

CITY           SKY/WX    TMP DP  RH WIND       PRES   REMARKS
DODGE CITY     CLOUDY    47  37  68 W15       29.85R
6HR MIN TEMP:  35; 6HR MAX TEMP:  47;

ELKHART          N/A     50  34  54 NW16        N/A
GARDEN CITY    CLOUDY    49  35  58 NW21      29.84S
6HR MIN TEMP:  36; 6HR MAX TEMP:  49;

GREAT BEND     CLOUDY    52  39  62 W13G22    29.81R
LIBERAL        PTSUNNY   52  37  58 NW16      29.89F
PRATT          CLOUDY    49  40  70 W10       29.83R
6HR MIN TEMP:  39; 6HR MAX TEMP:  50;

$$

KSZ066>073-081>083-090>101-301900-
SOUTHEAST KANSAS

CITY           SKY/WX    TMP DP  RH WIND       PRES   REMARKS
CHANUTE        PTSUNNY   62  50  64 W15       29.77R
6HR MIN TEMP:  58; 6HR MAX TEMP:  64;

COFFEYVILLE    CLOUDY    60  51  72 W13       29.79R
6HR MIN TEMP:  58; 6HR MAX TEMP:  62;

HUTCHINSON     CLOUDY    57  44  62 W15       29.79S
6HR MIN TEMP:  48; 6HR MAX TEMP:  57;

MEDICINE LODGE   N/A     57  43  59 W10       29.83S
NEWTON         PTSUNNY   55  43  62 W18G24    29.79S
PARSONS        PTSUNNY   62  53  72 SW10      29.79R
6HR MIN TEMP:  59; 6HR MAX TEMP:  63;

WICHITA INTL   PTSUNNY   58  46  64 W14       29.79S
6HR MIN TEMP:  49; 6HR MAX TEMP:  58;

WICHITA JABRA  MOSUNNY   56  46  69 W17       29.78R
6HR MIN TEMP:  48; 6HR MAX TEMP:  57;

WICHITA MCCONL SUNNY     56  46  68 W14       29.78S
WINFIELD       PTSUNNY   57  47  69 W13       29.81S
6HR MIN TEMP:  50; 6HR MAX TEMP:  59;

$$

KSZ007>012-019>026-033>040-048>060-102>105-301900-
NORTHEAST KANSAS

CITY           SKY/WX    TMP DP  RH WIND       PRES   REMARKS
CONCORDIA      CLOUDY    53  46  77 W13       29.73R
6HR MIN TEMP:  46; 6HR MAX TEMP:  53;

EMPORIA        PTSUNNY   57  48  72 W12       29.76R
6HR MIN TEMP:  52; 6HR MAX TEMP:  59;

LAWRENCE       CLOUDY    61  53  75 SW14      29.73R
6HR MIN TEMP:  57; 6HR MAX TEMP:  63; 6HR PCP:  0.08;

MANHATTAN      PTSUNNY   58  47  66 W13       29.72S
6HR MIN TEMP:  51; 6HR MAX TEMP:  58;

MARYSVILLE     CLOUDY    54  50  87 W10       29.70R
OLATHE IND     PTSUNNY   63  53  70 SW15G22   29.73R
6HR MIN TEMP:  58; 6HR MAX TEMP:  65;

OLATHE EXE     PTSUNNY   59  52  77 W10G22    29.72R
6HR MIN TEMP:  57; 6HR MAX TEMP:  65; 6HR PCP: TRACE;

SALINA         CLOUDY    59  48  67 W15       29.75S
6HR MIN TEMP:  50; 6HR MAX TEMP:  59;

TOPEKA BILLARD CLOUDY    58  49  72 SW10G20   29.74R
6HR MIN TEMP:  56; 6HR MAX TEMP:  60; 6HR PCP:  0.17;

TOPEKA FORBES  CLOUDY    61  52  72 W12       29.73R
6HR MIN TEMP:  57; 6HR MAX TEMP:  61; 6HR PCP:  0.02;

$$



USA.gov is the U.S. government's official web portal to all federal, state and local government web resources and services.